Content
SEND FEEDBACK

Daily
Averages
Monthly
Summary
United Kingdom

TYNEMOUTH, ENGLAND


Home > Europe > United Kingdom > England
Elevation: 108 feet     Latitude: 55 01N     Longitude: 001 25W

WEATHER
 
SELECT A DAY
Number of Records: 289,452;   Date Range: 7/1/96 - 10/23/14
 
SHARE

PRINT THIS DATA

[ ← Previous Day ]
WEATHER ALMANAC - SEPTEMBER 28, 2013
[ Next Day → ]
[ °C ]   °F
Weather ElementAverageHighLow
Temperature53.6 °F62.6 °F (2:20 pm)46.4 °F (5:20 am)
Dewpoint49.6 °F53.6 °F (3:20 pm)46.4 °F (1:50 am)
Humidity86.9 %100 % (5:20 am)68 % (2:20 pm)
Barometer29.92 in29.95 in (12:50 am)29.89 in (6:50 am)
Wind Speed5.8 mph10.4 mph (3:50 pm)
Weather ElementAverage
Visibility5.3 mi
Wind DirectionESE (101.6 °)

Weather ElementTotal
Precipitation---
Heating Degree Days10.5 (Base 65)
Growing Degree Days4.5 (Base 50)
Averaged from 43 records on September 28, 2013
WEATHER CONDITIONS BREAKOUT
WIND DIRECTION BREAKOUT
WEATHER BY HOUR - SEPTEMBER 28, 2013
[ °C ]   °F
Local TimeTemperatureDewpointHumidityBarometerVisibilityWind DirectionWind SpeedGust SpeedPrecipitationEventsConditions
12:50 AM51.8 °F48.2 °F88 %29.95 inSouth (170°)6.9 mphClear
1:20 AM51.8 °F48.2 °F88 %29.95 inSouth (170°)5.8 mphClear
1:50 AM51.8 °F46.4 °F82 %29.95 inSE (140°)5.8 mphClear
2:20 AM50.0 °F48.2 °F94 %29.92 inSE (140°)4.6 mphClear
2:50 AM50.0 °F46.4 °F87 %29.92 inVariable2.3 mphClear
3:20 AM48.2 °F46.4 °F93 %29.92 inCalmClear
4:20 AM48.2 °F46.4 °F93 %29.92 inVariable3.5 mphClear
4:50 AM48.2 °F46.4 °F93 %29.92 inSSE (160°)4.6 mphClear
5:20 AM46.4 °F46.4 °F100 %29.92 inVariable3.5 mphClear
5:50 AM46.4 °F46.4 °F100 %29.92 inVariable2.3 mphClear
6:20 AM48.2 °F46.4 °F93 %29.92 inVariable3.5 mphClear
6:50 AM48.2 °F46.4 °F93 %29.89 inSSE (160°)5.8 mphClear
7:20 AM48.2 °F46.4 °F93 %29.89 in3.7 miSE (140°)4.6 mph
7:50 AM48.2 °F48.2 °F100 %29.92 in3.7 miVariable3.5 mph
8:20 AM50.0 °F48.2 °F94 %29.92 in3.7 miVariable2.3 mph
8:50 AM51.8 °F48.2 °F88 %29.92 in4.3 miVariable3.5 mph
9:50 AM53.6 °F50.0 °F88 %29.92 in4.3 miVariable3.5 mphScattered Clouds
10:20 AM53.6 °F50.0 °F88 %29.95 in6.2 miVariable3.5 mphMostly Cloudy
10:50 AM53.6 °F50.0 °F88 %29.95 in4.3 miSSE (160°)5.8 mphMostly Cloudy
11:50 AM57.2 °F50.0 °F77 %29.95 in4.3 miSouth (170°)9.2 mphScattered Clouds
12:20 PM57.2 °F50.0 °F77 %29.92 in6.2 miSSE (160°)8.1 mphPartly Cloudy
12:50 PM59.0 °F50.0 °F72 %29.92 in5.0 miSouth (170°)6.9 mphScattered Clouds
1:20 PM60.8 °F51.8 °F72 %29.92 in4.3 miSouth (170°)6.9 mphScattered Clouds
1:50 PM60.8 °F51.8 °F72 %29.92 in4.3 miSSE (150°)8.1 mphPartly Cloudy
2:20 PM62.6 °F51.8 °F68 %29.89 in4.3 miSE (140°)5.8 mphPartly Cloudy
2:50 PM62.6 °F51.8 °F68 %29.89 in4.3 miESE (120°)8.1 mphPartly Cloudy
3:20 PM60.8 °F53.6 °F77 %29.89 in4.3 miEast (100°)9.2 mph
3:50 PM59.0 °F51.8 °F77 %29.89 in6.2 miEast (100°)10.4 mphPartly Cloudy
4:20 PM60.8 °F51.8 °F72 %29.89 in6.2 miESE (110°)6.9 mphPartly Cloudy
4:50 PM59.0 °F51.8 °F77 %29.89 in6.2 miESE (110°)8.1 mphPartly Cloudy
5:20 PM57.2 °F51.8 °F82 %29.89 in6.2 miESE (110°)8.1 mphPartly Cloudy
5:50 PM57.2 °F51.8 °F82 %29.89 in6.2 miESE (120°)6.9 mphPartly Cloudy
6:50 PM53.6 °F51.8 °F94 %29.89 in6.2 miESE (120°)5.8 mphPartly Cloudy
7:20 PM53.6 °F51.8 °F94 %29.89 in6.2 miESE (120°)5.8 mphPartly Cloudy
7:50 PM53.6 °F51.8 °F94 %29.92 in6.2 miESE (120°)5.8 mphPartly Cloudy
8:20 PM53.6 °F51.8 °F94 %29.92 in6.2 miSE (130°)5.8 mphPartly Cloudy
8:50 PM53.6 °F50.0 °F88 %29.92 in6.2 miSE (130°)8.1 mphPartly Cloudy
9:20 PM53.6 °F50.0 °F88 %29.92 inSE (130°)8.1 mphClear
9:50 PM53.6 °F51.8 °F94 %29.92 in6.2 miSE (130°)8.1 mphPartly Cloudy
10:20 PM53.6 °F51.8 °F94 %29.92 in6.2 miSE (130°)6.9 mphPartly Cloudy
10:50 PM51.8 °F50.0 °F94 %29.95 in6.2 miSE (130°)5.8 mphPartly Cloudy
11:20 PM51.8 °F50.0 °F94 %29.95 in6.2 miSE (140°)5.8 mphPartly Cloudy
11:50 PM51.8 °F50.0 °F94 %29.92 in6.2 miESE (120°)4.6 mphPartly Cloudy
Hourly data recorded from EGNT, located miles away from Tynemouth, England







STORIES FROM OUR PARTNERS